Regional Weather Roundup
Issued by NWS Goodland, KS

Home | Current Version | Previous Version | Graphics & Text | Print | Product List | Glossary On
Versions: 1 2 3 4 5 6 7 8 9 10 11 12 13 14 15 16 17 18 19 20 21 22 23 24 25 26 27 28 29 30 31 32 33 34 35 36 37 38 39 40 41 42 43 44 45 46 47 48 49 50
000
ASUS43 KGLD 202359
RWRGLD

GOODLAND FORECAST AREA HOURLY WEATHER ROUNDUP
NATIONAL WEATHER SERVICE GOODLAND KS
600 PM MDT WED AUG 20 2014

...OFFICIAL OBSERVATIONS...

CITY           SKY/WX    TMP DP  RH WIND       PRES   REMARKS
GOODLAND KS    PTSUNNY   87  60  40 NE8       29.79S
HILL CITY KS   PTSUNNY   95  62  33 S13G23    29.71S
IMPERIAL NEB   SUNNY     88  56  33 NW3       29.79R
MCCOOK NEB     PTSUNNY   91  61  36 SW6       29.73R
AKRON CO       PTSUNNY   83  54  36 S13       29.90R
BURLINGTON CO  PTSUNNY   90  51  26 NE5       29.83S
LIMON CO       MOSUNNY   78  50  37 N18       29.95R
$$

...UNOFFICIAL OBSERVATIONS...

CITY           SKY/WX    TMP DP  RH WIND       PRES   REMARKS
COLBY KS       MOSUNNY   82  70  65 SE6       29.76F
LENORA KS        N/A     91  32  12 CALM        N/A
NORTON KS      SUNNY     91  54  27 SE5       29.71S
SHARON SPRINGS   N/A     91  62  37 CALM        N/A
WAKEENEY KS      N/A     95  56  26 MISG        N/A
KIT CARSON CO    N/A     95  50  21 MISG        N/A
YUMA CO          N/A     83  57  41 CALM        N/A
$$


USA.gov is the U.S. government's official web portal to all federal, state and local government web resources and services.